EW4676 Weather Reports


time (UTC)temp
C
wind
direction
speed
KPH
gust
KPH
rain 1hr
cm
rain 24hr
cm
rain mn
cm
humidity
%
barometer
mb
20260509211354 32 76 3.2 9.7 0.00 0.00 0.00 40 1007.9
20260509211349 32 136 1.6 11.3 0.00 0.00 0.00 40 1007.8
20260509210840 32 66 3.2 9.7 0.00 0.00 0.00 39 1007.9
20260509205829 32 349 3.2 6.4 0.00 0.00 0.00 38 1008.0
20260509205319 32 9 3.2 6.4 0.00 0.00 0.00 41 1008.1
20260509204801 32 8 3.2 11.3 0.00 0.00 0.00 36 1008.3
20260509204251 32 332 3.2 11.3 0.00 0.00 0.00 36 1008.3
20260509203733 32 352 1.6 6.4 0.00 0.00 0.00 41 1008.4
20260509203223 32 295 3.2 6.4 0.00 0.00 0.00 37 1008.5
20260509202711 32 257 3.2 11.3 0.00 0.00 0.00 39 1008.6
20260509202201 32 262 4.8 11.3 0.00 0.00 0.00 41 1008.7
20260509201650 32 11 6.4 14.5 0.00 0.00 0.00 39 1008.7
20260509201632 32 358 8.0 17.7 0.00 0.00 0.00 38 1008.8
20260509201236 32 13 8.0 14.5 0.00 0.00 0.00 41 1008.8
20260509200121 32 27 6.4 17.7 0.00 0.00 0.00 39 1008.8
20260509195611 32 343 3.2 11.3 0.00 0.00 0.00 43 1008.8
20260509195101 32 28 3.2 9.7 0.00 0.00 0.00 42 1008.9
20260509194552 32 22 3.2 11.3 0.00 0.00 0.00 40 1008.9
20260509194043 32 39 3.2 11.3 0.00 0.00 0.00 43 1009.0
20260509193533 31 60 6.4 14.5 0.00 0.00 0.00 41 1009.1
20260509193524 32 24 6.4 14.5 0.00 0.00 0.00 41 1009.1
20260509192513 32 8 6.4 11.3 0.00 0.00 0.00 43 1009.1
20260509192007 31 37 4.8 16.1 0.00 0.00 0.00 43 1009.1
20260509191458 31 85 4.8 16.1 0.00 0.00 0.00 46 1009.1
20260509190949 31 331 4.8 17.7 0.00 0.00 0.00 46 1009.2
20260509190439 31 285 4.8 17.7 0.00 0.00 0.00 47 1009.2
20260509185929 31 318 6.4 17.7 0.00 0.00 0.00 47 1009.3
20260509185419 31 45 4.8 17.7 0.00 0.00 0.00 44 1009.3
20260509185410 31 8 3.2 11.3 0.00 0.00 0.00 47 1009.3
20260509184403 31 343 6.4 11.3 0.00 0.00 0.00 46 1009.4
20260509183856 31 282 6.4 12.9 0.00 0.00 0.00 46 1009.4
20260509183851 31 23 4.8 14.5 0.00 0.00 0.00 46 1009.4
20260509183344 31 20 4.8 16.1 0.00 0.00 0.00 48 1009.4
20260509182333 31 16 8.0 19.3 0.00 0.00 0.00 46 1009.6
20260509182325 31 334 8.0 19.3 0.00 0.00 0.00 49 1009.6
20260509181321 30 14 4.8 16.1 0.00 0.00 0.00 48 1009.7
20260509181313 30 4 6.4 14.5 0.00 0.00 0.00 45 1009.8
20260509180309 30 279 8.0 14.5 0.00 0.00 0.00 48 1009.8
20260509175801 30 332 8.0 14.5 0.00 0.00 0.00 48 1009.7
20260509175257 30 39 6.4 17.7 0.00 0.00 0.00 46 1009.8
20260509174757 30 24 6.4 17.7 0.00 0.00 0.00 45 1009.8
20260509174254 30 26 6.4 16.1 0.00 0.00 0.00 47 1009.9
20260509174249 30 344 6.4 16.1 0.00 0.00 0.00 50 1009.9
20260509173247 30 25 8.0 17.7 0.00 0.00 0.00 47 1009.9
20260509172738 30 358 8.0 17.7 0.00 0.00 0.00 49 1010.0
20260509172237 30 43 6.4 16.1 0.00 0.00 0.00 47 1010.1
20260509171731 30 77 4.8 16.1 0.00 0.00 0.00 50 1010.1
20260509171229 30 16 3.2 14.5 0.00 0.00 0.00 50 1010.2
20260509170727 30 23 3.2 16.1 0.00 0.00 0.00 51 1010.2
20260509170213 29 359 4.8 17.7 0.00 0.00 0.00 48 1010.3
20260509165658 29 23 6.4 17.7 0.00 0.00 0.00 51 1010.3
20260509165156 29 0 6.4 14.5 0.00 0.00 0.00 52 1010.3
20260509165150 28 318 6.4 17.7 0.00 0.00 0.00 54 1010.3
20260509164148 28 345 6.4 16.1 0.00 0.00 0.00 54 1010.3
20260509164144 28 313 6.4 17.7 0.00 0.00 0.00 51 1010.4
20260509163126 28 12 4.8 16.1 0.00 0.00 0.00 54 1010.4
20260509163113 28 316 4.8 16.1 0.00 0.00 0.00 54 1010.4
20260509162717 28 22 4.8 16.1 0.00 0.00 0.00 53 1010.5
20260509161603 28 322 6.4 22.5 0.00 0.00 0.00 57 1010.3
20260509161057 27 307 6.4 17.7 0.00 0.00 0.00 55 1010.3
20260509160546 27 324 4.8 12.9 0.00 0.00 0.00 56 1010.3
20260509160532 27 24 4.8 12.9 0.00 0.00 0.00 58 1010.3
20260509160137 27 336 4.8 12.9 0.00 0.00 0.00 59 1010.3
20260509155009 27 330 6.4 17.7 0.00 0.00 0.00 61 1010.2
20260509154502 27 347 6.4 17.7 0.00 0.00 0.00 61 1010.2
20260509153952 27 351 6.4 14.5 0.00 0.00 0.00 61 1010.2
20260509153449 26 359 8.0 14.5 0.00 0.00 0.00 61 1010.2
20260509153429 26 326 6.4 17.7 0.00 0.00 0.00 62 1010.3
20260509153032 26 325 6.4 17.7 0.00 0.00 0.00 61 1010.3
20260509151917 26 4 6.4 16.1 0.00 0.00 0.00 61 1010.2
20260509151407 26 303 6.4 16.1 0.00 0.00 0.00 61 1010.2
20260509150857 26 317 4.8 16.1 0.00 0.00 0.00 61 1010.2
20260509150347 25 340 8.0 19.3 0.00 0.00 0.00 64 1010.3
20260509145837 25 1 8.0 19.3 0.00 0.00 0.00 63 1010.4
20260509145327 25 349 8.0 17.7 0.00 0.00 0.00 62 1010.4
20260509145318 25 359 6.4 19.3 0.00 0.00 0.00 64 1010.4
20260509144307 25 316 6.4 19.3 0.00 0.00 0.00 65 1010.4
20260509143756 25 309 6.4 16.1 0.00 0.00 0.00 66 1010.3
20260509143247 24 341 6.4 12.9 0.00 0.00 0.00 70 1010.4
20260509142736 24 312 4.8 14.5 0.00 0.00 0.00 72 1010.4
20260509142227 24 345 3.2 14.5 0.00 0.00 0.00 73 1010.4
20260509141716 23 321 3.2 9.7 0.00 0.00 0.00 72 1010.4
20260509141206 23 301 3.2 14.5 0.00 0.00 0.00 75 1010.4
20260509140655 23 320 3.2 14.5 0.00 0.00 0.00 74 1010.4
20260509140146 23 313 6.4 16.1 0.00 0.00 0.00 76 1010.3
20260509135636 22 359 6.4 16.1 0.00 0.00 0.00 76 1010.3
20260509135126 22 318 4.8 14.5 0.00 0.00 0.00 78 1010.2
20260509135117 22 351 4.8 11.3 0.00 0.00 0.00 78 1010.3
20260509134107 21 10 4.8 11.3 0.00 0.00 0.00 79 1010.1
20260509133556 21 2 4.8 12.9 0.00 0.00 0.00 80 1010.1
20260509133045 21 336 6.4 12.9 0.00 0.00 0.00 81 1010.2
20260509133034 21 357 6.4 16.1 0.00 0.00 0.00 81 1010.1
20260509132025 21 343 6.4 12.9 0.00 0.00 0.00 82 1010.1
20260509131514 21 349 6.4 12.9 0.00 0.00 0.00 82 1010.1
20260509131005 20 326 4.8 12.9 0.00 0.00 0.00 83 1010.0
20260509130454 20 336 4.8 12.9 0.00 0.00 0.00 83 1010.1
20260509130449 20 337 4.8 12.9 0.00 0.00 0.00 83 1010.0
20260509125934 20 332 6.4 17.7 0.00 0.00 0.00 83 1010.0
20260509124925 20 359 6.4 17.7 0.00 0.00 0.00 83 1010.0
20260509124414 20 347 8.0 17.7 0.00 0.00 0.00 83 1010.0
20260509123905 20 322 6.4 17.7 0.00 0.00 0.00 83 1010.0
20260509123354 20 322 6.4 14.5 0.00 0.00 0.00 83 1009.9
20260509122842 20 298 6.4 12.9 0.00 0.00 0.00 83 1009.9
20260509122332 20 262 6.4 12.9 0.00 0.00 0.00 83 1009.9
20260509122325 20 257 6.4 12.9 0.00 0.00 0.00 83 1009.8
20260509121815 20 332 6.4 11.3 0.00 0.00 0.00 83 1009.8
20260509120805 20 279 4.8 8.0 0.00 0.00 0.00 83 1009.8
20260509120758 20 280 3.2 6.4 0.00 0.00 0.00 83 1009.7
20260509120252 20 253 3.2 6.4 0.00 0.00 0.00 82 1009.7
20260509115249 20 248 1.6 4.8 0.00 0.00 0.00 82 1009.7
20260509114750 20 249 1.6 4.8 0.00 0.00 0.00 82 1009.6
20260509114250 20 249 1.6 4.8 0.00 0.00 0.00 82 1009.6
20260509113751 20 243 3.2 6.4 0.00 0.00 0.00 82 1009.5
20260509113729 20 253 1.6 6.4 0.00 0.00 0.00 82 1009.4
20260509113334 20 246 3.2 8.0 0.00 0.00 0.00 82 1009.4
20260509112717 20 217 1.6 6.4 0.00 0.00 0.00 82 1009.3
20260509111706 20 229 1.6 6.4 0.00 0.00 0.00 82 1009.2
20260509111146 20 214 1.6 8.0 0.00 0.00 0.00 83 1009.1
20260509110636 20 208 3.2 9.7 0.00 0.00 0.00 83 1009.1
20260509110127 20 225 3.2 9.7 0.00 0.00 0.00 83 1009.0
20260509105608 20 186 1.6 6.4 0.00 0.00 0.00 83 1009.0
20260509105058 20 247 3.2 8.0 0.00 0.00 0.00 83 1008.9
20260509105042 20 262 3.2 8.0 0.00 0.00 0.00 83 1008.9
20260509104030 20 252 3.2 8.0 0.00 0.00 0.00 84 1008.9
20260509104021 20 278 3.2 8.0 0.00 0.00 0.00 84 1009.0
20260509103511 20 253 3.2 6.4 0.00 0.00 0.00 84 1009.0
20260509102502 20 245 3.2 6.4 0.00 0.00 0.00 84 1008.9
20260509101944 21 313 1.6 6.4 0.00 0.00 0.00 85 1008.9
20260509101434 20 313 4.8 14.5 0.00 0.00 0.00 85 1008.9
20260509100924 20 311 6.4 14.5 0.00 0.00 0.00 85 1009.0
20260509100916 20 351 8.0 14.5 0.00 0.00 0.00 85 1009.0
20260509095905 20 13 6.4 17.7 0.00 0.00 0.00 85 1009.0
20260509095356 20 348 8.0 16.1 0.00 0.00 0.00 85 1008.4
20260509095347 20 20 8.0 20.9 0.00 0.00 0.00 85 1008.0
20260509094836 20 357 6.4 20.9 0.00 0.00 0.00 85 1007.8
20260509093826 20 186 9.7 25.7 0.00 0.00 0.00 85 1006.9
20260509093316 20 178 11.3 25.7 0.00 0.00 0.00 85 1006.8
20260509092804 20 172 11.3 24.1 0.00 0.00 0.00 85 1006.5
20260509092256 20 218 11.3 27.4 0.00 0.00 0.00 85 1006.3
20260509091752 20 170 12.9 27.4 0.00 0.00 0.00 85 1006.3
20260509091249 20 195 11.3 24.1 0.00 0.00 0.00 85 1006.5
20260509090741 20 181 12.9 27.4 0.00 0.00 0.00 85 1006.5
20260509090236 20 216 12.9 27.4 0.00 0.00 0.00 85 1006.7
20260509085731 20 182 11.3 29.0 0.00 0.00 0.00 85 1006.8
20260509085229 20 206 12.9 29.0 0.00 0.00 0.00 85 1006.9
20260509084726 20 202 14.5 30.6 0.00 0.00 0.00 85 1006.8
20260509084220 20 214 14.5 32.2 0.00 0.00 0.00 85 1006.6
20260509083713 20 140 12.9 32.2 0.00 0.00 0.00 85 1006.4
20260509083205 20 161 12.9 30.6 0.00 0.00 0.00 85 1006.7
20260509082702 20 218 12.9 30.6 0.00 0.00 0.00 85 1007.1
20260509082157 20 126 12.9 30.6 0.00 0.00 0.00 85 1007.4
20260509081653 20 211 11.3 30.6 0.00 0.00 0.00 84 1007.6
20260509081150 20 141 8.0 19.3 0.00 0.00 0.00 84 1007.9
20260509080647 20 132 6.4 17.7 0.00 0.00 0.00 84 1008.4
20260509080142 20 207 6.4 17.7 0.00 0.00 0.00 84 1008.7
20260509075638 20 193 6.4 17.7 0.00 0.00 0.00 84 1008.9
20260509075131 20 177 4.8 14.5 0.00 0.00 0.00 84 1009.3
20260509074626 20 225 4.8 12.9 0.00 0.00 0.00 84 1009.5
20260509074620 20 262 4.8 11.3 0.00 0.00 0.00 84 1009.7
20260509074112 20 208 4.8 14.5 0.00 0.00 0.00 84 1009.7
20260509073107 20 292 4.8 16.1 0.00 0.00 0.00 84 1010.1
20260509072600 20 192 4.8 16.1 0.00 0.00 0.00 84 1010.3
20260509072054 20 235 4.8 17.7 0.00 0.00 0.00 84 1010.3
20260509071548 20 283 6.4 17.7 0.00 0.00 0.00 84 1010.5
20260509071041 20 293 6.4 14.5 0.00 0.00 0.00 84 1010.8
20260509070532 20 286 6.4 14.5 0.00 0.00 0.00 84 1011.1
20260509070025 20 254 6.4 14.5 0.00 0.00 0.00 84 1011.2
20260509065520 20 307 6.4 16.1 0.00 0.00 0.00 84 1011.0
20260509065003 20 284 4.8 11.3 0.00 0.00 0.00 83 1011.0
20260509064455 20 262 3.2 8.0 0.00 0.00 0.00 83 1010.7
20260509063947 20 284 1.6 8.0 0.00 0.00 0.00 83 1010.7
20260509063439 20 1 0.0 4.8 0.00 0.00 0.00 83 1010.6
20260509062931 20 3 0.0 1.6 0.00 0.00 0.00 83 1010.6
20260509062423 20 3 0.0 1.6 0.00 0.00 0.00 83 1010.6
20260509061914 20 3 0.0 1.6 0.00 0.00 0.00 83 1010.7
20260509061904 20 3 0.0 1.6 0.00 0.00 0.00 83 1010.8
20260509061353 20 3 1.6 3.2 0.00 0.00 0.00 83 1011.0
20260509060343 21 3 0.0 6.4 0.00 0.00 0.00 83 1011.1
20260509055832 21 3 1.6 6.4 0.00 0.00 0.00 83 1010.6
20260509055323 21 3 3.2 11.3 0.00 0.00 0.00 83 1010.8
20260509054814 21 24 3.2 11.3 0.00 0.00 0.00 83 1011.0
20260509054304 21 11 4.8 11.3 0.00 0.00 0.00 82 1011.1
20260509053754 21 357 4.8 11.3 0.00 0.00 0.00 82 1011.0
20260509053243 21 28 4.8 12.9 0.00 0.00 0.00 81 1010.7
20260509052734 21 26 3.2 9.7 0.00 0.00 0.00 81 1010.7
20260509052223 21 82 0.0 0.0 0.00 0.00 0.00 81 1010.2
20260509051713 21 161 0.0 0.0 0.00 0.00 0.00 81 1009.9
20260509051204 21 164 0.0 0.0 0.00 0.00 0.00 80 1009.9
20260509050653 21 162 0.0 0.0 0.00 0.00 0.00 80 1010.0
20260509050143 21 160 0.0 3.2 0.00 0.00 0.00 80 1009.9
20260509045628 21 161 1.6 4.8 0.00 0.00 0.00 80 1009.8
20260509045118 21 161 1.6 4.8 0.00 0.00 0.00 80 1009.8
20260509044608 21 173 1.6 6.4 0.00 0.00 0.00 80 1009.7
20260509044059 21 178 1.6 6.4 0.00 0.00 0.00 80 1009.8
20260509043548 21 164 3.2 4.8 0.00 0.00 0.00 80 1009.8
20260509043038 21 162 3.2 11.3 0.00 0.00 0.00 80 1009.9
20260509042528 21 163 4.8 11.3 0.00 0.00 0.00 80 1010.0
20260509042017 21 158 1.6 8.0 0.00 0.00 0.00 79 1010.0
20260509041508 21 105 0.0 4.8 0.00 0.00 0.00 79 1010.2
20260509041459 21 120 0.0 0.0 0.00 0.00 0.00 79 1010.5
20260509040448 21 119 0.0 0.0 0.00 0.00 0.00 79 1010.4
20260509040439 22 118 0.0 6.4 0.00 0.00 0.00 78 1010.2
20260509035929 22 118 0.0 6.4 0.00 0.00 0.00 78 1010.2
20260509034918 22 118 1.6 9.7 0.00 0.00 0.00 78 1010.0
20260509034408 22 137 3.2 12.9 0.00 0.00 0.00 78 1009.9
20260509034400 22 130 4.8 12.9 0.00 0.00 0.00 78 1009.6
20260509033348 22 141 1.6 12.9 0.00 0.00 0.00 78 1009.5
20260509033339 22 122 3.2 11.3 0.00 0.00 0.00 78 1009.4
20260509032328 22 109 4.8 16.1 0.00 0.00 0.00 77 1009.3
20260509032319 22 143 4.8 16.1 0.00 0.00 0.00 77 1009.2
20260509031808 22 160 6.4 14.5 0.00 0.00 0.00 77 1009.0
20260509030758 22 136 4.8 14.5 0.00 0.00 0.00 77 1009.0
20260509030248 22 152 6.4 12.9 0.00 0.00 0.00 77 1009.1
20260509030240 22 155 6.4 16.1 0.00 0.00 0.00 77 1009.0
20260509025228 22 153 4.8 16.1 0.00 0.00 0.00 77 1008.9
20260509024718 22 138 4.8 12.9 0.00 0.00 0.00 77 1008.8
20260509024208 22 125 4.8 11.3 0.00 0.00 0.00 77 1008.6
20260509023651 22 111 6.4 16.1 0.00 0.00 0.00 77 1008.5
20260509023132 22 157 8.0 16.1 0.00 0.00 0.00 76 1008.4
20260509022623 22 130 6.4 14.5 0.00 0.00 0.00 76 1008.5
20260509022116 22 163 6.4 11.3 0.00 0.00 0.00 76 1008.6
20260509021610 22 141 4.8 11.3 0.00 0.00 0.00 76 1008.5
20260509021102 22 145 4.8 11.3 0.00 0.00 0.00 76 1008.6
20260509020552 22 135 3.2 11.3 0.00 0.00 0.00 76 1008.6
20260509020042 22 141 3.2 8.0 0.00 0.00 0.00 76 1008.6
20260509015532 22 141 3.2 8.0 0.00 0.00 0.00 76 1008.7
20260509015023 22 138 1.6 8.0 0.00 0.00 0.00 76 1008.7
20260509014514 22 115 0.0 6.4 0.00 0.00 0.00 76 1008.7
20260509014012 22 116 1.6 6.4 0.00 0.00 0.00 75 1008.6
20260509013508 22 96 1.6 6.4 0.00 0.00 0.00 75 1008.6
20260509013007 22 130 1.6 6.4 0.00 0.00 0.00 75 1008.6
20260509012507 22 139 1.6 6.4 0.00 0.00 0.00 75 1008.5
20260509012005 22 138 1.6 8.0 0.00 0.00 0.00 75 1008.5
20260509011510 22 173 1.6 4.8 0.00 0.00 0.00 75 1008.3
20260509011504 22 142 1.6 8.0 0.00 0.00 0.00 75 1008.4
20260509010502 22 157 1.6 4.8 0.00 0.00 0.00 74 1008.3
20260509010004 22 155 3.2 6.4 0.00 0.00 0.00 74 1008.2
20260509005456 22 149 4.8 9.7 0.00 0.00 0.00 74 1008.1
20260509004950 22 144 3.2 9.7 0.00 0.00 0.00 74 1008.0
20260509004441 22 147 3.2 8.0 0.00 0.00 0.00 74 1007.9
20260509003936 22 146 3.2 8.0 0.00 0.00 0.00 74 1007.9
20260509003436 22 141 4.8 11.3 0.00 0.00 0.00 73 1007.7
20260509003432 22 145 3.2 11.3 0.00 0.00 0.00 74 1007.8
20260509002425 23 159 3.2 9.7 0.00 0.00 0.00 73 1007.8
20260509001922 23 126 3.2 12.9 0.00 0.00 0.00 73 1007.9
20260509001422 23 186 4.8 9.7 0.00 0.00 0.00 73 1007.9
20260509001417 23 157 4.8 12.9 0.00 0.00 0.00 73 1008.0
20260509000913 23 132 4.8 9.7 0.00 0.00 0.00 73 1007.9
20260509000524 23 147 4.8 11.3 0.00 0.00 0.00 73 1008.1
20260508235907 22 155 3.2 11.3 0.00 0.00 0.00 73 1008.2
20260508235358 22 120 0.0 4.8 0.00 0.00 0.00 73 1008.2
20260508234349 22 152 1.6 6.4 0.00 0.00 0.00 73 1008.3
20260508233842 22 153 1.6 6.4 0.00 0.00 0.00 72 1008.2
20260508233333 22 158 3.2 9.7 0.00 0.00 0.00 72 1008.3
20260508232827 22 153 4.8 14.5 0.00 0.00 0.00 73 1008.3
20260508232319 22 181 3.2 14.5 0.00 0.00 0.00 72 1008.2
20260508231810 22 159 3.2 9.7 0.00 0.00 0.00 72 1008.3
20260508231803 22 141 4.8 8.0 0.00 0.00 0.00 72 1008.3
20260508231253 22 124 6.4 14.5 0.00 0.00 0.00 72 1008.2
20260508230244 22 185 6.4 14.5 0.00 0.00 0.00 71 1008.2
20260508225725 22 161 6.4 16.1 0.00 0.00 0.00 71 1008.2
20260508225215 23 164 6.4 16.1 0.00 0.00 0.00 70 1008.2
20260508224705 23 180 6.4 14.5 0.00 0.00 0.00 71 1008.2
20260508224155 23 186 8.0 22.5 0.00 0.00 0.00 71 1008.2
20260508224147 23 170 8.0 17.7 0.00 0.00 0.00 71 1008.2
20260508223135 22 192 8.0 19.3 0.00 0.00 0.00 71 1008.2
20260508222625 22 137 8.0 19.3 0.00 0.00 0.00 70 1008.3
20260508222125 23 197 6.4 17.7 0.00 0.00 0.00 71 1008.3
20260508221615 22 139 8.0 17.7 0.00 0.00 0.00 70 1008.4
20260508221106 22 168 8.0 17.7 0.00 0.00 0.00 70 1008.4
20260508220555 22 156 8.0 17.7 0.00 0.00 0.00 70 1008.5
20260508220044 22 151 8.0 19.3 0.00 0.00 0.00 70 1008.5
20260508215535 22 147 8.0 20.9 0.00 0.00 0.00 70 1008.6
20260508215026 22 142 8.0 20.9 0.00 0.00 0.00 68 1008.7
20260508214525 22 139 8.0 17.7 0.00 0.00 0.00 67 1008.8
20260508214015 22 161 6.4 17.7 0.00 0.00 0.00 69 1008.8
20260508213505 22 144 4.8 12.9 0.00 0.00 0.00 72 1008.8
20260508212955 21 154 6.4 16.1 0.00 0.00 0.00 72 1009.0
20260508212445 21 232 8.0 16.1 0.00 0.00 0.00 72 1009.2
20260508211935 22 232 8.0 17.7 0.00 0.00 0.00 70 1009.3